07-07-2023, 00:00:02,    154,    0.1,   10.8,   0.00,   0.00, 1012.9,   78.9, -999.0
07-07-2023, 00:00:12,    154,    0.2,   10.8,   0.00,   0.00, 1012.9,   79.1, -999.0
07-07-2023, 00:00:22,    154,    0.0,   10.9,   0.00,   0.00, 1012.9,   79.0, -999.0
07-07-2023, 00:00:32,    154,    0.0,   10.9,   0.00,   0.00, 1012.8,   79.1, -999.0
07-07-2023, 00:00:42,    154,    0.4,   10.9,   0.00,   0.00, 1012.9,   79.3, -999.0
07-07-2023, 00:00:52,    155,    1.1,   10.9,   0.00,   0.00, 1012.9,   79.6, -999.0
07-07-2023, 00:01:02,    155,    0.2,   10.9,   0.00,   0.00, 1012.9,   79.4, -999.0
07-07-2023, 00:01:12,    154,    0.0,   10.8,   0.00,   0.00, 1012.8,   79.3, -999.0
07-07-2023, 00:01:22,    154,    0.0,   10.8,   0.00,   0.00, 1012.8,   79.4, -999.0
07-07-2023, 00:01:32,    154,    0.1,   10.9,   0.00,   0.00, 1012.9,   79.8, -999.0
07-07-2023, 00:01:42,    154,    0.0,   10.8,   0.00,   0.00, 1012.8,   79.6, -999.0
07-07-2023, 00:01:52,    154,    0.2,   10.9,   0.00,   0.00, 1012.9,   79.6, -999.0
07-07-2023, 00:02:02,    154,    0.3,   10.9,   0.00,   0.00, 1012.9,   79.6, -999.0
07-07-2023, 00:02:12,    154,    1.1,   10.9,   0.00,   0.00, 1012.9,   79.7, -999.0
07-07-2023, 00:02:22,    154,    0.1,   10.9,   0.00,   0.00, 1012.9,   79.6, -999.0
07-07-2023, 00:02:32,    154,    0.0,   10.8,   0.00,   0.00, 1012.9,   79.5, -999.0
07-07-2023, 00:02:42,    167,    0.4,   10.8,   0.00,   0.00, 1012.9,   79.7, -999.0
07-07-2023, 00:02:52,    172,    0.2,   10.8,   0.00,   0.00, 1012.9,   79.8, -999.0
07-07-2023, 00:03:02,    173,    0.0,   10.8,   0.00,   0.00, 1012.8,   79.7, -999.0
07-07-2023, 00:03:12,    174,    0.0,   10.8,   0.00,   0.00, 1012.9,   80.0, -999.0
07-07-2023, 00:03:22,    174,    0.0,   10.7,   0.00,   0.00, 1012.9,   80.1, -999.0
07-07-2023, 00:03:32,    174,    0.0,   10.7,   0.00,   0.00, 1012.8,   80.3, -999.0
07-07-2023, 00:03:42,    174,    0.0,   10.8,   0.00,   0.00, 1012.8,   80.2, -999.0
07-07-2023, 00:03:52,    174,    0.0,   10.8,   0.00,   0.00, 1012.8,   80.0, -999.0
07-07-2023, 00:04:02,    174,    0.0,   10.8,   0.00,   0.00, 1012.8,   80.0, -999.0
07-07-2023, 00:04:12,    174,    0.0,   10.7,   0.00,   0.00, 1012.8,   80.1, -999.0
07-07-2023, 00:04:21,    174,    0.0,   10.7,   0.00,   0.00, 1012.8,   79.9, -999.0
07-07-2023, 00:04:32,    173,    0.0,   10.7,   0.00,   0.00, 1012.8,   79.9, -999.0
07-07-2023, 00:04:42,    174,    0.0,   10.8,   0.00,   0.00, 1012.8,   80.0, -999.0
07-07-2023, 00:04:52,    174,    0.0,   10.7,   0.00,   0.00, 1012.8,   80.0, -999.0
07-07-2023, 00:05:01,    174,    0.0,   10.8,   0.00,   0.00, 1012.8,   80.0, -999.0
07-07-2023, 00:05:12,    174,    0.0,   10.8,   0.00,   0.00, 1012.8,   79.9, -999.0
07-07-2023, 00:05:22,    174,    0.0,   10.8,   0.00,   0.00, 1012.8,   80.1, -999.0
07-07-2023, 00:05:31,    174,    0.0,   10.7,   0.00,   0.00, 1012.8,   80.4, -999.0
07-07-2023, 00:05:42,    173,    0.0,   10.7,   0.00,   0.00, 1012.8,   80.1, -999.0
07-07-2023, 00:05:52,    174,    0.0,   10.8,   0.00,   0.00, 1012.8,   80.3, -999.0
07-07-2023, 00:06:01,    174,    0.0,   10.8,   0.00,   0.00, 1012.8,   80.4, -999.0
07-07-2023, 00:06:11,    174,    0.0,   10.8,   0.00,   0.00, 1012.8,   80.2, -999.0
07-07-2023, 00:06:22,    173,    0.0,   10.8,   0.00,   0.00, 1012.8,   80.1, -999.0
07-07-2023, 00:06:32,    173,    0.0,   10.8,   0.00,   0.00, 1012.8,   80.1, -999.0
07-07-2023, 00:06:41,    174,    0.0,   10.8,   0.00,   0.00, 1012.8,   79.9, -999.0
07-07-2023, 00:06:51,    174,    0.0,   10.7,   0.00,   0.00, 1012.8,   80.0, -999.0
07-07-2023, 00:07:02,    174,    0.0,   10.8,   0.00,   0.00, 1012.9,   79.7, -999.0
07-07-2023, 00:07:11,    173,    0.0,   10.8,   0.00,   0.00, 1012.8,   79.7, -999.0
07-07-2023, 00:07:21,    174,    0.0,   10.7,   0.00,   0.00, 1012.8,   79.8, -999.0
07-07-2023, 00:07:31,    173,    0.0,   10.7,   0.00,   0.00, 1012.9,   79.8, -999.0
07-07-2023, 00:07:41,    174,    0.0,   10.8,   0.00,   0.00, 1012.8,   79.8, -999.0
07-07-2023, 00:07:51,    174,    0.0,   10.8,   0.00,   0.00, 1012.8,   79.8, -999.0
07-07-2023, 00:08:01,    174,    0.0,   10.7,   0.00,   0.00, 1012.8,   79.7, -999.0
07-07-2023, 00:08:11,    174,    0.0,   10.7,   0.00,   0.00, 1012.9,   79.9, -999.0
07-07-2023, 00:08:21,    174,    0.0,   10.8,   0.00,   0.00, 1012.9,   80.1, -999.0
07-07-2023, 00:08:31,    173,    0.0,   10.7,   0.00,   0.00, 1012.9,   80.1, -999.0
07-07-2023, 00:08:41,    174,    0.0,   10.8,   0.00,   0.00, 1012.9,   80.4, -999.0
07-07-2023, 00:08:51,    173,    0.5,   10.8,   0.00,   0.00, 1013.0,   80.7, -999.0
07-07-2023, 00:09:01,    173,    0.5,   10.7,   0.00,   0.00, 1013.0,   80.8, -999.0
07-07-2023, 00:09:11,    173,    0.0,   10.7,   0.00,   0.00, 1012.9,   80.6, -999.0
07-07-2023, 00:09:21,    173,    0.0,   10.8,   0.00,   0.00, 1012.9,   80.5, -999.0
07-07-2023, 00:09:31,    173,    0.0,   10.8,   0.00,   0.00, 1012.9,   80.5, -999.0
07-07-2023, 00:09:41,    173,    0.0,   10.7,   0.00,   0.00, 1012.9,   80.5, -999.0
07-07-2023, 00:09:51,    173,    0.0,   10.8,   0.00,   0.00, 1012.9,   80.5, -999.0
07-07-2023, 00:10:01,    173,    0.0,   10.7,   0.00,   0.00, 1012.9,   80.5, -999.0
07-07-2023, 00:10:11,    174,    0.0,   10.8,   0.00,   0.00, 1012.9,   80.6, -999.0
07-07-2023, 00:10:21,    174,    0.4,   10.8,   0.00,   0.00, 1013.0,   80.9, -999.0
07-07-2023, 00:10:31,    173,    0.6,   10.9,   0.00,   0.00, 1013.0,   80.7, -999.0
07-07-2023, 00:10:41,    173,    0.0,   10.7,   0.00,   0.00, 1012.9,   80.5, -999.0
07-07-2023, 00:10:51,    173,    0.0,   10.7,   0.00,   0.00, 1012.9,   80.7, -999.0
07-07-2023, 00:11:01,    173,    0.0,   10.7,   0.00,   0.00, 1012.9,   80.8, -999.0
07-07-2023, 00:11:11,    173,    0.0,   10.7,   0.00,   0.00, 1012.9,   80.8, -999.0
07-07-2023, 00:11:21,    173,    0.0,   10.8,   0.00,   0.00, 1012.9,   81.1, -999.0
07-07-2023, 00:11:31,    173,    0.0,   10.7,   0.00,   0.00, 1013.0,   81.0, -999.0
07-07-2023, 00:11:41,    173,    0.0,   10.7,   0.00,   0.00, 1012.9,   80.8, -999.0
07-07-2023, 00:11:51,    173,    0.0,   10.8,   0.00,   0.00, 1012.9,   80.8, -999.0
07-07-2023, 00:12:00,    173,    0.0,   10.7,   0.00,   0.00, 1012.9,   80.6, -999.0
07-07-2023, 00:12:11,    173,    0.0,   10.8,   0.00,   0.00, 1012.9,   81.0, -999.0
07-07-2023, 00:12:21,    173,    0.0,   10.9,   0.00,   0.00, 1012.9,   81.1, -999.0
07-07-2023, 00:12:31,    173,    0.0,   10.9,   0.00,   0.00, 1012.9,   80.9, -999.0
07-07-2023, 00:12:41,    173,    0.0,   10.7,   0.00,   0.00, 1012.9,   80.6, -999.0
07-07-2023, 00:12:51,    173,    0.0,   10.7,   0.00,   0.00, 1012.9,   80.3, -999.0
07-07-2023, 00:13:01,    173,    0.0,   10.7,   0.00,   0.00, 1012.9,   80.4, -999.0
07-07-2023, 00:13:10,    173,    0.0,   10.7,   0.00,   0.00, 1012.9,   80.3, -999.0
07-07-2023, 00:13:21,    173,    0.0,   10.7,   0.00,   0.00, 1012.9,   80.3, -999.0
07-07-2023, 00:13:31,    173,    0.0,   10.6,   0.00,   0.00, 1012.9,   80.3, -999.0
07-07-2023, 00:13:40,    173,    0.0,   10.7,   0.00,   0.00, 1012.9,   80.6, -999.0
07-07-2023, 00:13:50,    173,    0.0,   10.8,   0.00,   0.00, 1012.9,   81.1, -999.0
07-07-2023, 00:14:01,    173,    0.0,   10.8,   0.00,   0.00, 1012.9,   81.2, -999.0
07-07-2023, 00:14:11,    173,    0.0,   10.8,   0.00,   0.00, 1012.9,   80.9, -999.0
07-07-2023, 00:14:20,    173,    0.0,   10.7,   0.00,   0.00, 1012.9,   80.4, -999.0
07-07-2023, 00:14:30,    174,    0.0,   10.8,   0.00,   0.00, 1012.9,   80.4, -999.0
07-07-2023, 00:14:41,    173,    0.0,   10.7,   0.00,   0.00, 1012.9,   80.4, -999.0
07-07-2023, 00:14:50,    173,    0.0,   10.7,   0.00,   0.00, 1012.9,   80.3, -999.0
07-07-2023, 00:15:00,    173,    0.0,   10.7,   0.00,   0.00, 1012.9,   80.2, -999.0
07-07-2023, 00:15:10,    173,    0.0,   10.7,   0.00,   0.00, 1012.9,   80.5, -999.0
07-07-2023, 00:15:21,    173,    0.0,   10.7,   0.00,   0.00, 1012.9,   80.8, -999.0
07-07-2023, 00:15:30,    173,    0.0,   10.7,   0.00,   0.00, 1012.9,   80.9, -999.0
07-07-2023, 00:15:40,    173,    0.0,   10.6,   0.00,   0.00, 1012.9,   80.9, -999.0
07-07-2023, 00:15:50,    173,    0.0,   10.6,   0.00,   0.00, 1012.9,   80.8, -999.0
07-07-2023, 00:16:00,    173,    0.0,   10.7,   0.00,   0.00, 1012.9,   80.9, -999.0
07-07-2023, 00:16:10,    173,    0.0,   10.7,   0.00,   0.00, 1012.9,   81.0, -999.0
07-07-2023, 00:16:20,    173,    0.0,   10.7,   0.00,   0.00, 1012.9,   81.1, -999.0
07-07-2023, 00:16:30,    173,    0.0,   10.6,   0.00,   0.00, 1012.9,   81.3, -999.0
07-07-2023, 00:16:40,    173,    0.0,   10.6,   0.00,   0.00, 1012.9,   81.4, -999.0
07-07-2023, 00:16:50,    173,    0.0,   10.6,   0.00,   0.00, 1012.9,   81.5, -999.0
07-07-2023, 00:17:00,    173,    0.0,   10.6,   0.00,   0.00, 1012.9,   81.5, -999.0
07-07-2023, 00:17:10,    173,    0.0,   10.6,   0.00,   0.00, 1012.9,   81.7, -999.0
07-07-2023, 00:17:20,    173,    0.0,   10.6,   0.00,   0.00, 1012.9,   81.9, -999.0
07-07-2023, 00:17:30,    173,    0.0,   10.6,   0.00,   0.00, 1012.9,   81.9, -999.0
07-07-2023, 00:17:40,    173,    0.0,   10.6,   0.00,   0.00, 1012.9,   82.3, -999.0
07-07-2023, 00:17:50,    173,    0.0,   10.7,   0.00,   0.00, 1012.9,   82.2, -999.0
07-07-2023, 00:18:00,    173,    0.0,   10.6,   0.00,   0.00, 1012.9,   82.2, -999.0
07-07-2023, 00:18:10,    173,    0.0,   10.6,   0.00,   0.00, 1012.9,   82.2, -999.0
07-07-2023, 00:18:20,    173,    0.0,   10.6,   0.00,   0.00, 1012.9,   81.9, -999.0
07-07-2023, 00:18:30,    173,    0.0,   10.6,   0.00,   0.00, 1012.9,   81.6, -999.0
07-07-2023, 00:18:40,    173,    0.0,   10.6,   0.00,   0.00, 1012.9,   81.6, -999.0
07-07-2023, 00:18:50,    173,    0.0,   10.6,   0.00,   0.00, 1012.9,   81.8, -999.0
07-07-2023, 00:19:00,    173,    0.0,   10.5,   0.00,   0.00, 1012.9,   81.9, -999.0
07-07-2023, 00:19:10,    173,    0.0,   10.6,   0.00,   0.00, 1012.9,   82.1, -999.0
07-07-2023, 00:19:20,    173,    0.0,   10.6,   0.00,   0.00, 1012.9,   82.3, -999.0
07-07-2023, 00:19:30,    173,    0.0,   10.5,   0.00,   0.00, 1012.9,   82.5, -999.0
07-07-2023, 00:19:40,    173,    0.0,   10.5,   0.00,   0.00, 1012.9,   82.6, -999.0
07-07-2023, 00:19:50,    173,    0.0,   10.6,   0.00,   0.00, 1012.9,   82.5, -999.0
07-07-2023, 00:20:00,    173,    0.0,   10.5,   0.00,   0.00, 1012.9,   82.5, -999.0
07-07-2023, 00:20:10,    173,    0.0,   10.5,   0.00,   0.00, 1012.9,   82.4, -999.0
07-07-2023, 00:20:19,    173,    0.0,   10.5,   0.00,   0.00, 1012.9,   82.4, -999.0
07-07-2023, 00:20:30,    173,    0.0,   10.5,   0.00,   0.00, 1012.9,   82.5, -999.0
07-07-2023, 00:20:40,    173,    0.0,   10.4,   0.00,   0.00, 1012.9,   82.7, -999.0
07-07-2023, 00:20:50,    173,    0.0,   10.5,   0.00,   0.00, 1012.9,   83.1, -999.0
07-07-2023, 00:20:59,    173,    0.0,   10.5,   0.00,   0.00, 1012.9,   83.0, -999.0
07-07-2023, 00:21:10,    173,    0.0,   10.5,   0.00,   0.00, 1012.9,   83.1, -999.0
07-07-2023, 00:21:20,    173,    0.0,   10.5,   0.00,   0.00, 1012.9,   83.3, -999.0
07-07-2023, 00:21:29,    173,    0.0,   10.5,   0.00,   0.00, 1012.9,   83.4, -999.0
07-07-2023, 00:21:39,    173,    0.0,   10.5,   0.00,   0.00, 1012.9,   83.6, -999.0
07-07-2023, 00:21:50,    173,    0.0,   10.4,   0.00,   0.00, 1012.9,   83.7, -999.0
07-07-2023, 00:22:00,    173,    0.0,   10.4,   0.00,   0.00, 1012.9,   83.7, -999.0
07-07-2023, 00:22:09,    173,    0.0,   10.5,   0.00,   0.00, 1013.0,   84.0, -999.0
07-07-2023, 00:22:19,    173,    0.0,   10.5,   0.00,   0.00, 1013.0,   84.0, -999.0
07-07-2023, 00:22:30,    173,    0.0,   10.5,   0.00,   0.00, 1012.9,   83.9, -999.0
07-07-2023, 00:22:39,    173,    0.0,   10.5,   0.00,   0.00, 1012.9,   84.0, -999.0
07-07-2023, 00:22:49,    173,    0.0,   10.5,   0.00,   0.00, 1013.0,   84.3, -999.0
07-07-2023, 00:22:59,    173,    0.0,   10.4,   0.00,   0.00, 1012.9,   84.3, -999.0
07-07-2023, 00:23:09,    173,    0.0,   10.4,   0.00,   0.00, 1012.9,   84.3, -999.0
07-07-2023, 00:23:19,    173,    0.0,   10.4,   0.00,   0.00, 1012.9,   84.5, -999.0
07-07-2023, 00:23:29,    173,    0.0,   10.5,   0.00,   0.00, 1012.9,   84.4, -999.0
07-07-2023, 00:23:39,    173,    0.0,   10.4,   0.00,   0.00, 1012.9,   84.5, -999.0
07-07-2023, 00:23:49,    173,    0.0,   10.4,   0.00,   0.00, 1012.9,   84.7, -999.0
07-07-2023, 00:23:59,    173,    0.0,   10.4,   0.00,   0.00, 1012.9,   84.8, -999.0
07-07-2023, 00:24:09,    173,    0.0,   10.4,   0.00,   0.00, 1012.9,   84.8, -999.0
07-07-2023, 00:24:19,    173,    0.0,   10.4,   0.00,   0.00, 1012.9,   85.1, -999.0
07-07-2023, 00:24:29,    173,    0.0,   10.4,   0.00,   0.00, 1013.0,   85.0, -999.0
07-07-2023, 00:24:39,    173,    0.0,   10.5,   0.00,   0.00, 1013.0,   85.2, -999.0
07-07-2023, 00:24:49,    173,    0.0,   10.5,   0.00,   0.00, 1012.9,   85.3, -999.0
07-07-2023, 00:24:59,    173,    0.0,   10.4,   0.00,   0.00, 1013.0,   85.1, -999.0
07-07-2023, 00:25:09,    173,    0.0,   10.4,   0.00,   0.00, 1012.9,   85.4, -999.0
07-07-2023, 00:25:19,    173,    0.0,   10.4,   0.00,   0.00, 1013.0,   85.6, -999.0
07-07-2023, 00:25:29,    173,    0.0,   10.5,   0.00,   0.00, 1013.0,   85.7, -999.0
07-07-2023, 00:25:39,    173,    0.0,   10.4,   0.00,   0.00, 1012.9,   85.7, -999.0
07-07-2023, 00:25:49,    173,    0.0,   10.4,   0.00,   0.00, 1013.0,   85.8, -999.0
07-07-2023, 00:25:59,    173,    0.0,   10.5,   0.00,   0.00, 1012.9,   85.9, -999.0
07-07-2023, 00:26:09,    173,    0.0,   10.4,   0.00,   0.00, 1013.0,   85.8, -999.0
07-07-2023, 00:26:19,    173,    0.0,   10.4,   0.00,   0.00, 1012.9,   86.0, -999.0
07-07-2023, 00:26:29,    174,    0.0,   10.5,   0.00,   0.00, 1013.0,   86.1, -999.0
07-07-2023, 00:26:39,    173,    0.0,   10.5,   0.00,   0.00, 1013.0,   85.8, -999.0
07-07-2023, 00:26:49,    173,    0.0,   10.4,   0.00,   0.00, 1013.0,   85.3, -999.0
07-07-2023, 00:26:59,    173,    0.0,   10.5,   0.00,   0.00, 1013.0,   85.2, -999.0
07-07-2023, 00:27:09,    172,    0.0,   10.5,   0.00,   0.00, 1013.0,   85.3, -999.0
07-07-2023, 00:27:19,    173,    0.0,   10.5,   0.00,   0.00, 1013.0,   85.3, -999.0
07-07-2023, 00:27:29,    173,    0.0,   10.5,   0.00,   0.00, 1013.0,   85.4, -999.0
07-07-2023, 00:27:39,    173,    0.0,   10.5,   0.00,   0.00, 1012.9,   85.4, -999.0
07-07-2023, 00:27:49,    173,    0.0,   10.5,   0.00,   0.00, 1013.0,   85.6, -999.0
07-07-2023, 00:27:59,    173,    0.0,   10.5,   0.00,   0.00, 1013.0,   85.5, -999.0
07-07-2023, 00:28:09,    173,    0.0,   10.5,   0.00,   0.00, 1013.0,   85.2, -999.0
07-07-2023, 00:28:19,    173,    0.0,   10.5,   0.00,   0.00, 1013.0,   85.1, -999.0
07-07-2023, 00:28:29,    173,    0.0,   10.5,   0.00,   0.00, 1013.0,   85.0, -999.0
07-07-2023, 00:28:39,    173,    0.0,   10.5,   0.00,   0.00, 1013.0,   85.2, -999.0
07-07-2023, 00:28:48,    173,    0.2,   10.6,   0.00,   0.00, 1013.0,   85.7, -999.0
07-07-2023, 00:28:59,    173,    0.0,   10.5,   0.00,   0.00, 1013.0,   85.1, -999.0
07-07-2023, 00:29:09,    173,    0.0,   10.5,   0.00,   0.00, 1013.0,   85.0, -999.0
07-07-2023, 00:29:18,    173,    0.0,   10.6,   0.00,   0.00, 1013.0,   85.0, -999.0
07-07-2023, 00:29:28,    173,    0.0,   10.6,   0.00,   0.00, 1013.0,   84.8, -999.0
07-07-2023, 00:29:39,    173,    0.0,   10.5,   0.00,   0.00, 1012.9,   84.9, -999.0
07-07-2023, 00:29:49,    173,    0.0,   10.6,   0.00,   0.00, 1013.0,   85.3, -999.0
07-07-2023, 00:29:58,    173,    0.0,   10.6,   0.00,   0.00, 1013.0,   85.3, -999.0
07-07-2023, 00:30:08,    173,    0.0,   10.7,   0.00,   0.00, 1013.0,   85.2, -999.0
07-07-2023, 00:30:19,    173,    0.0,   10.7,   0.00,   0.00, 1013.0,   84.9, -999.0
07-07-2023, 00:30:28,    173,    0.0,   10.7,   0.00,   0.00, 1013.0,   84.6, -999.0
07-07-2023, 00:30:38,    172,    0.0,   10.6,   0.00,   0.00, 1013.0,   84.3, -999.0
07-07-2023, 00:30:49,    173,    0.0,   10.6,   0.00,   0.00, 1013.0,   84.0, -999.0
07-07-2023, 00:30:58,    173,    0.0,   10.6,   0.00,   0.00, 1013.0,   83.9, -999.0
07-07-2023, 00:31:08,    173,    0.0,   10.6,   0.00,   0.00, 1012.9,   83.8, -999.0
07-07-2023, 00:31:18,    173,    0.0,   10.6,   0.00,   0.00, 1013.0,   83.9, -999.0
07-07-2023, 00:31:29,    173,    0.0,   10.6,   0.00,   0.00, 1013.0,   84.1, -999.0
07-07-2023, 00:31:38,    173,    0.0,   10.6,   0.00,   0.00, 1013.0,   84.3, -999.0
07-07-2023, 00:31:48,    173,    0.0,   10.6,   0.00,   0.00, 1013.0,   84.1, -999.0
07-07-2023, 00:31:58,    173,    0.0,   10.6,   0.00,   0.00, 1012.9,   84.1, -999.0
07-07-2023, 00:32:08,    172,    0.0,   10.5,   0.00,   0.00, 1012.9,   84.5, -999.0
07-07-2023, 00:32:18,    173,    0.0,   10.6,   0.00,   0.00, 1012.9,   84.8, -999.0
07-07-2023, 00:32:28,    173,    0.0,   10.5,   0.00,   0.00, 1012.9,   84.6, -999.0
07-07-2023, 00:32:38,    174,    0.0,   10.6,   0.00,   0.00, 1012.9,   84.8, -999.0
07-07-2023, 00:32:48,    173,    0.0,   10.5,   0.00,   0.00, 1012.9,   84.8, -999.0
07-07-2023, 00:32:58,    173,    0.0,   10.5,   0.00,   0.00, 1013.0,   84.7, -999.0
07-07-2023, 00:33:08,    173,    0.0,   10.5,   0.00,   0.00, 1012.9,   84.7, -999.0
07-07-2023, 00:33:18,    173,    0.0,   10.5,   0.00,   0.00, 1012.9,   84.8, -999.0
07-07-2023, 00:33:28,    173,    0.0,   10.6,   0.00,   0.00, 1012.9,   84.9, -999.0
07-07-2023, 00:33:38,    173,    0.0,   10.6,   0.00,   0.00, 1012.9,   84.9, -999.0
07-07-2023, 00:33:48,    172,    0.0,   10.6,   0.00,   0.00, 1012.9,   84.9, -999.0
07-07-2023, 00:33:58,    173,    0.0,   10.6,   0.00,   0.00, 1013.0,   85.0, -999.0
07-07-2023, 00:34:08,    175,    0.0,   10.6,   0.00,   0.00, 1013.0,   85.3, -999.0
07-07-2023, 00:34:18,    173,    0.0,   10.6,   0.00,   0.00, 1013.0,   85.1, -999.0
07-07-2023, 00:34:28,    173,    0.0,   10.6,   0.00,   0.00, 1013.0,   84.9, -999.0
07-07-2023, 00:34:38,    173,    0.0,   10.6,   0.00,   0.00, 1013.0,   84.5, -999.0
07-07-2023, 00:34:48,    173,    0.0,   10.6,   0.00,   0.00, 1013.0,   84.5, -999.0
07-07-2023, 00:34:58,    173,    0.0,   10.6,   0.00,   0.00, 1013.0,   84.6, -999.0
07-07-2023, 00:35:08,    173,    0.0,   10.6,   0.00,   0.00, 1013.0,   84.4, -999.0
07-07-2023, 00:35:18,    173,    0.0,   10.7,   0.00,   0.00, 1013.0,   84.4, -999.0
07-07-2023, 00:35:28,    173,    0.0,   10.6,   0.00,   0.00, 1013.0,   84.4, -999.0
07-07-2023, 00:35:38,    172,    0.0,   10.7,   0.00,   0.00, 1012.9,   84.4, -999.0
07-07-2023, 00:35:48,    173,    0.0,   10.7,   0.00,   0.00, 1013.0,   84.2, -999.0
07-07-2023, 00:35:58,    173,    0.0,   10.6,   0.00,   0.00, 1013.0,   84.0, -999.0
07-07-2023, 00:36:08,    173,    0.0,   10.6,   0.00,   0.00, 1013.0,   83.9, -999.0
07-07-2023, 00:36:18,    173,    0.0,   10.6,   0.00,   0.00, 1013.0,   84.1, -999.0
07-07-2023, 00:36:27,    173,    0.0,   10.6,   0.00,   0.00, 1013.0,   84.2, -999.0
07-07-2023, 00:36:38,    173,    0.0,   10.6,   0.00,   0.00, 1013.0,   84.4, -999.0
07-07-2023, 00:36:48,    173,    0.0,   10.7,   0.00,   0.00, 1013.0,   84.6, -999.0
07-07-2023, 00:36:58,    173,    0.0,   10.7,   0.00,   0.00, 1013.0,   84.6, -999.0
07-07-2023, 00:37:07,    173,    0.0,   10.6,   0.00,   0.00, 1013.0,   84.2, -999.0
07-07-2023, 00:37:18,    173,    0.0,   10.7,   0.00,   0.00, 1013.0,   84.1, -999.0
07-07-2023, 00:37:28,    173,    0.0,   10.6,   0.00,   0.00, 1013.0,   83.9, -999.0
07-07-2023, 00:37:37,    173,    0.0,   10.7,   0.00,   0.00, 1013.0,   83.8, -999.0
07-07-2023, 00:37:47,    173,    0.0,   10.7,   0.00,   0.00, 1013.0,   83.9, -999.0
07-07-2023, 00:37:58,    173,    0.0,   10.6,   0.00,   0.00, 1013.0,   84.3, -999.0
07-07-2023, 00:38:08,    173,    0.2,   10.6,   0.00,   0.00, 1013.0,   84.6, -999.0
07-07-2023, 00:38:17,    173,    0.0,   10.7,   0.00,   0.00, 1013.0,   83.9, -999.0
07-07-2023, 00:38:27,    173,    0.0,   10.7,   0.00,   0.00, 1013.0,   83.9, -999.0
07-07-2023, 00:38:38,    172,    0.0,   10.7,   0.00,   0.00, 1013.0,   83.8, -999.0
07-07-2023, 00:38:47,    173,    0.0,   10.7,   0.00,   0.00, 1013.0,   83.7, -999.0
07-07-2023, 00:38:57,    173,    0.0,   10.7,   0.00,   0.00, 1013.0,   83.5, -999.0
07-07-2023, 00:39:07,    173,    0.0,   10.7,   0.00,   0.00, 1013.0,   83.5, -999.0
07-07-2023, 00:39:17,    173,    0.0,   10.7,   0.00,   0.00, 1013.0,   83.4, -999.0
07-07-2023, 00:39:27,    173,    0.0,   10.7,   0.00,   0.00, 1012.9,   83.5, -999.0
07-07-2023, 00:39:37,    173,    0.0,   10.7,   0.00,   0.00, 1013.0,   83.9, -999.0
07-07-2023, 00:39:47,    173,    0.0,   10.6,   0.00,   0.00, 1013.0,   84.0, -999.0
07-07-2023, 00:39:57,    172,    0.0,   10.7,   0.00,   0.00, 1013.0,   83.7, -999.0
07-07-2023, 00:40:07,    173,    0.0,   10.7,   0.00,   0.00, 1012.9,   83.6, -999.0
07-07-2023, 00:40:17,    173,    0.0,   10.7,   0.00,   0.00, 1013.0,   83.5, -999.0
07-07-2023, 00:40:27,    172,    0.0,   10.7,   0.00,   0.00, 1013.0,   83.4, -999.0
07-07-2023, 00:40:37,    173,    0.0,   10.7,   0.00,   0.00, 1012.9,   83.4, -999.0
07-07-2023, 00:40:47,    173,    0.0,   10.7,   0.00,   0.00, 1013.0,   83.5, -999.0
07-07-2023, 00:40:57,    172,    0.0,   10.7,   0.00,   0.00, 1013.0,   83.7, -999.0
07-07-2023, 00:41:07,    173,    0.0,   10.7,   0.00,   0.00, 1012.9,   83.7, -999.0
07-07-2023, 00:41:17,    173,    0.0,   10.7,   0.00,   0.00, 1013.0,   83.8, -999.0
07-07-2023, 00:41:27,    173,    0.0,   10.7,   0.00,   0.00, 1012.9,   83.6, -999.0
07-07-2023, 00:41:37,    173,    0.0,   10.7,   0.00,   0.00, 1013.0,   83.5, -999.0
07-07-2023, 00:41:47,    173,    0.0,   10.8,   0.00,   0.00, 1013.0,   83.4, -999.0
07-07-2023, 00:41:57,    173,    0.0,   10.7,   0.00,   0.00, 1012.9,   83.5, -999.0
07-07-2023, 00:42:07,    173,    0.0,   10.8,   0.00,   0.00, 1013.0,   83.7, -999.0
07-07-2023, 00:42:17,    173,    0.0,   10.8,   0.00,   0.00, 1012.9,   83.5, -999.0
07-07-2023, 00:42:27,    173,    0.0,   10.7,   0.00,   0.00, 1012.9,   83.0, -999.0
07-07-2023, 00:42:37,    173,    0.0,   10.7,   0.00,   0.00, 1013.0,   82.8, -999.0
07-07-2023, 00:42:47,    173,    0.0,   10.7,   0.00,   0.00, 1012.9,   82.7, -999.0
07-07-2023, 00:42:57,    173,    0.0,   10.7,   0.00,   0.00, 1012.9,   82.8, -999.0
07-07-2023, 00:43:07,    173,    0.0,   10.7,   0.00,   0.00, 1013.0,   82.8, -999.0
07-07-2023, 00:43:17,    172,    0.0,   10.6,   0.00,   0.00, 1012.9,   82.9, -999.0
07-07-2023, 00:43:27,    173,    0.0,   10.7,   0.00,   0.00, 1012.9,   82.9, -999.0
07-07-2023, 00:43:37,    173,    0.0,   10.7,   0.00,   0.00, 1012.9,   82.8, -999.0
07-07-2023, 00:43:46,    173,    0.0,   10.7,   0.00,   0.00, 1012.9,   82.9, -999.0
07-07-2023, 00:43:57,    173,    0.0,   10.6,   0.00,   0.00, 1012.9,   83.1, -999.0
07-07-2023, 00:44:07,    172,    0.0,   10.7,   0.00,   0.00, 1012.9,   83.5, -999.0
07-07-2023, 00:44:17,    173,    0.0,   10.7,   0.00,   0.00, 1012.9,   83.7, -999.0
07-07-2023, 00:44:27,    173,    0.0,   10.7,   0.00,   0.00, 1012.9,   83.4, -999.0
07-07-2023, 00:44:37,    173,    0.0,   10.7,   0.00,   0.00, 1012.9,   83.2, -999.0
07-07-2023, 00:44:47,    172,    0.0,   10.7,   0.00,   0.00, 1013.0,   83.2, -999.0
07-07-2023, 00:44:56,    173,    0.0,   10.7,   0.00,   0.00, 1012.9,   83.3, -999.0
07-07-2023, 00:45:06,    173,    0.0,   10.7,   0.00,   0.00, 1013.0,   83.3, -999.0
07-07-2023, 00:45:17,    173,    0.0,   10.7,   0.00,   0.00, 1012.9,   83.3, -999.0
07-07-2023, 00:45:27,    173,    0.0,   10.7,   0.00,   0.00, 1013.0,   83.1, -999.0
07-07-2023, 00:45:36,    173,    0.0,   10.7,   0.00,   0.00, 1013.0,   83.0, -999.0
07-07-2023, 00:45:46,    173,    0.0,   10.7,   0.00,   0.00, 1013.0,   82.8, -999.0
07-07-2023, 00:45:57,    172,    0.0,   10.7,   0.00,   0.00, 1013.0,   82.7, -999.0
07-07-2023, 00:46:06,    172,    0.0,   10.7,   0.00,   0.00, 1013.0,   82.6, -999.0
07-07-2023, 00:46:16,    173,    0.0,   10.7,   0.00,   0.00, 1013.0,   82.6, -999.0
07-07-2023, 00:46:27,    173,    0.0,   10.7,   0.00,   0.00, 1013.0,   82.5, -999.0
07-07-2023, 00:46:36,    172,    0.0,   10.6,   0.00,   0.00, 1013.0,   82.5, -999.0
07-07-2023, 00:46:46,    173,    0.0,   10.6,   0.00,   0.00, 1013.0,   82.7, -999.0